Time,TemperatureF,DewpointF,PressureIn,WindDirection,WindDirectionDegrees,WindSpeedMPH,WindSpeedGustMPH,Humidity,HourlyPrecipIn,Conditions,Clouds,dailyrainin,SoftwareType,DateUTC
2013-02-04 00:01:00,37.0,22.3,30.03,NW,304,9.2,9.2,55,0.00,CLR,,0.00,WeatherDisplay:10.37,2013-02-04 05:01:00,
2013-02-04 00:03:00,36.9,22.2,30.03,NW,311,6.9,6.9,55,0.00,CLR,,0.00,WeatherDisplay:10.37,2013-02-04 05:03:00,
2013-02-04 00:08:00,36.8,22.1,30.03,WNW,292,5.0,5.0,55,0.00,CLR,,0.00,WeatherDisplay:10.37,2013-02-04 05:08:00,
2013-02-04 00:13:00,36.9,22.2,30.03,NW,311,5.8,5.8,55,0.00,CLR,,0.00,WeatherDisplay:10.37,2013-02-04 05:13:00,
2013-02-04 00:18:00,36.5,21.8,30.02,WNW,300,6.9,6.9,55,0.00,CLR,,0.00,WeatherDisplay:10.37,2013-02-04 05:18:00,
2013-02-04 00:23:00,36.9,22.2,30.03,NW,311,5.8,5.8,55,0.00,CLR,,0.00,WeatherDisplay:10.37,2013-02-04 05:23:00,
2013-02-04 00:28:00,36.9,22.2,30.03,NW,311,5.8,5.8,55,0.00,CLR,,0.00,WeatherDisplay:10.37,2013-02-04 05:28:00,
2013-02-04 00:33:00,36.9,22.2,30.03,NW,311,5.8,5.8,55,0.00,CLR,,0.00,WeatherDisplay:10.37,2013-02-04 05:33:00,
2013-02-04 00:38:00,35.7,21.5,30.02,NW,309,5.0,5.0,56,0.00,CLR,,0.00,WeatherDisplay:10.37,2013-02-04 05:38:00,
2013-02-04 00:43:00,36.9,22.2,30.03,NW,311,5.8,5.8,55,0.00,CLR,,0.00,WeatherDisplay:10.37,2013-02-04 05:43:00,
2013-02-04 00:48:00,36.9,22.2,30.03,NW,311,5.8,5.8,55,0.00,CLR,,0.00,WeatherDisplay:10.37,2013-02-04 05:48:00,
2013-02-04 00:53:00,36.9,22.2,30.03,NW,311,5.8,5.8,55,0.00,CLR,,0.00,WeatherDisplay:10.37,2013-02-04 05:53:00,
2013-02-04 00:58:00,36.9,22.2,30.03,NW,311,5.8,5.8,55,0.00,CLR,,0.00,WeatherDisplay:10.37,2013-02-04 05:58:00,
2013-02-04 01:03:00,34.4,21.1,30.03,NW,318,0.0,0.0,58,0.00,CLR,,0.00,WeatherDisplay:10.37,2013-02-04 06:03:00,
2013-02-04 01:08:00,34.4,21.1,30.03,NW,318,0.0,0.0,58,0.00,CLR,,0.00,WeatherDisplay:10.37,2013-02-04 06:08:00,
2013-02-04 01:13:00,34.4,21.1,30.03,West,269,3.5,3.5,58,0.00,CLR,,0.00,WeatherDisplay:10.37,2013-02-04 06:13:00,
2013-02-04 01:18:00,34.4,21.1,30.03,West,269,3.5,3.5,58,0.00,CLR,,0.00,WeatherDisplay:10.37,2013-02-04 06:18:00,
2013-02-04 01:23:00,34.1,21.3,30.03,SW,232,3.5,3.5,59,0.00,CLR,,0.00,WeatherDisplay:10.37,2013-02-04 06:23:00,
2013-02-04 01:28:00,34.1,21.3,30.03,SW,232,1.2,2.3,59,0.00,CLR,,0.00,WeatherDisplay:10.37,2013-02-04 06:28:00,
2013-02-04 01:33:00,33.6,21.2,30.03,SW,232,3.5,3.5,60,0.00,CLR,,0.00,WeatherDisplay:10.37,2013-02-04 06:33:00,
2013-02-04 01:38:00,33.4,21.0,30.04,SW,232,3.5,3.5,60,0.00,CLR,,0.00,WeatherDisplay:10.37,2013-02-04 06:38:00,
2013-02-04 01:43:00,33.3,20.9,30.04,WSW,244,4.0,4.0,60,0.00,CLR,,0.00,WeatherDisplay:10.37,2013-02-04 06:43:00,
2013-02-04 01:48:00,33.2,21.2,30.04,WSW,244,4.6,4.6,61,0.00,CLR,,0.00,WeatherDisplay:10.37,2013-02-04 06:48:00,
2013-02-04 01:53:00,32.9,21.3,30.04,WSW,256,4.6,4.6,62,0.00,CLR,,0.00,WeatherDisplay:10.37,2013-02-04 06:53:00,
2013-02-04 01:58:00,33.2,21.2,30.04,WSW,244,3.5,4.0,61,0.00,CLR,,0.00,WeatherDisplay:10.37,2013-02-04 06:58:00,
2013-02-04 02:03:00,31.9,21.1,30.04,WNW,286,4.6,4.6,64,0.00,CLR,,0.00,WeatherDisplay:10.37,2013-02-04 07:03:00,
2013-02-04 02:08:00,31.8,21.4,30.04,WNW,286,6.9,6.9,65,0.00,CLR,,0.00,WeatherDisplay:10.37,2013-02-04 07:08:00,
2013-02-04 02:13:00,31.8,21.4,30.04,WNW,286,6.9,6.9,65,0.00,CLR,,0.00,WeatherDisplay:10.37,2013-02-04 07:13:00,
2013-02-04 02:18:00,31.8,21.4,30.04,WNW,286,6.9,6.9,65,0.00,CLR,,0.00,WeatherDisplay:10.37,2013-02-04 07:18:00,
2013-02-04 02:23:00,32.2,21.4,30.05,WSW,257,6.9,6.9,64,0.00,CLR,,0.00,WeatherDisplay:10.37,2013-02-04 07:23:00,
2013-02-04 02:28:00,32.2,21.4,30.04,West,268,3.5,5.0,64,0.00,CLR,,0.00,WeatherDisplay:10.37,2013-02-04 07:28:00,
2013-02-04 02:33:00,32.1,21.3,30.05,WSW,240,3.5,3.7,64,0.00,CLR,,0.00,WeatherDisplay:10.37,2013-02-04 07:33:00,
2013-02-04 02:38:00,32.1,21.3,30.05,WSW,245,5.8,5.8,64,0.00,CLR,,0.00,WeatherDisplay:10.37,2013-02-04 07:38:00,
2013-02-04 02:43:00,32.1,21.3,30.05,WSW,245,5.8,5.8,64,0.00,CLR,,0.00,WeatherDisplay:10.37,2013-02-04 07:43:00,
2013-02-04 02:48:00,32.1,21.3,30.05,WSW,245,5.8,5.8,64,0.00,CLR,,0.00,WeatherDisplay:10.37,2013-02-04 07:48:00,
2013-02-04 02:53:00,31.9,21.1,30.05,WNW,284,5.8,5.8,64,0.00,CLR,,0.00,WeatherDisplay:10.37,2013-02-04 07:53:00,
2013-02-04 02:58:00,31.8,21.0,30.05,WNW,284,0.0,0.8,64,0.00,CLR,,0.00,WeatherDisplay:10.37,2013-02-04 07:58:00,
2013-02-04 03:03:00,31.8,21.0,30.05,WNW,284,0.0,0.8,64,0.00,CLR,,0.00,WeatherDisplay:10.37,2013-02-04 08:03:00,
2013-02-04 03:08:00,31.8,21.0,30.05,WNW,284,0.0,0.8,64,0.00,CLR,,0.00,WeatherDisplay:10.37,2013-02-04 08:08:00,
2013-02-04 03:13:00,31.8,21.0,30.05,WNW,284,0.0,0.8,64,0.00,CLR,,0.00,WeatherDisplay:10.37,2013-02-04 08:13:00,
2013-02-04 03:18:00,31.8,21.0,30.05,WNW,284,0.0,0.8,64,0.00,CLR,,0.00,WeatherDisplay:10.37,2013-02-04 08:18:00,
2013-02-04 03:23:00,31.8,21.0,30.05,WNW,284,0.0,0.8,64,0.00,CLR,,0.00,WeatherDisplay:10.37,2013-02-04 08:23:00,
2013-02-04 03:28:00,31.8,21.0,30.05,WNW,284,0.0,0.8,64,0.00,CLR,,0.00,WeatherDisplay:10.37,2013-02-04 08:28:00,
2013-02-04 03:33:00,31.8,21.0,30.05,WNW,284,0.0,0.8,64,0.00,CLR,,0.00,WeatherDisplay:10.37,2013-02-04 08:33:00,
2013-02-04 03:38:00,31.2,20.8,30.05,WNW,284,0.0,0.0,65,0.00,CLR,,0.00,WeatherDisplay:10.37,2013-02-04 08:38:00,
2013-02-04 03:43:00,31.1,20.7,30.04,WNW,284,0.0,0.0,65,0.00,CLR,,0.00,WeatherDisplay:10.37,2013-02-04 08:43:00,
2013-02-04 03:48:00,31.0,20.6,30.05,WNW,284,0.0,0.0,65,0.00,CLR,,0.00,WeatherDisplay:10.37,2013-02-04 08:48:00,
2013-02-04 03:53:00,31.0,20.6,30.05,WNW,284,0.0,0.0,65,0.00,CLR,,0.00,WeatherDisplay:10.37,2013-02-04 08:53:00,
2013-02-04 03:58:00,31.0,20.6,30.05,WNW,284,0.0,0.0,65,0.00,CLR,,0.00,WeatherDisplay:10.37,2013-02-04 08:58:00,
2013-02-04 04:03:00,31.0,20.6,30.05,WNW,284,0.0,0.0,65,0.00,CLR,,0.00,WeatherDisplay:10.37,2013-02-04 09:03:00,
2013-02-04 04:08:00,30.3,20.6,30.05,West,281,3.5,3.5,67,0.00,CLR,,0.00,WeatherDisplay:10.37,2013-02-04 09:08:00,
2013-02-04 04:13:00,30.2,20.6,30.05,West,268,0.0,0.0,67,0.00,CLR,,0.00,WeatherDisplay:10.37,2013-02-04 09:13:00,
2013-02-04 04:18:00,30.1,20.5,30.05,SW,223,1.2,0.0,67,0.00,CLR,,0.00,WeatherDisplay:10.37,2013-02-04 09:18:00,
2013-02-04 04:23:00,30.1,20.5,30.05,SW,223,0.0,0.0,67,0.00,CLR,,0.00,WeatherDisplay:10.37,2013-02-04 09:23:00,
2013-02-04 04:28:00,30.0,20.4,30.05,SW,223,0.0,0.0,67,0.00,CLR,,0.00,WeatherDisplay:10.37,2013-02-04 09:28:00,
2013-02-04 04:33:00,30.0,20.4,30.05,SW,222,0.0,0.0,67,0.00,CLR,,0.00,WeatherDisplay:10.37,2013-02-04 09:33:00,
2013-02-04 04:38:00,29.9,20.3,30.05,SW,223,3.5,3.5,67,0.00,CLR,,0.00,WeatherDisplay:10.37,2013-02-04 09:38:00,
2013-02-04 04:43:00,30.0,20.4,30.05,SW,222,0.0,0.0,67,0.00,CLR,,0.00,WeatherDisplay:10.37,2013-02-04 09:43:00,
2013-02-04 04:48:00,30.1,20.5,30.06,SW,222,2.3,2.3,67,0.00,CLR,,0.00,WeatherDisplay:10.37,2013-02-04 09:48:00,
2013-02-04 04:53:00,30.1,20.5,30.06,SW,223,2.3,2.3,67,0.00,CLR,,0.00,WeatherDisplay:10.37,2013-02-04 09:53:00,
2013-02-04 04:58:00,30.3,20.6,30.06,WSW,240,5.8,5.8,67,0.00,CLR,,0.00,WeatherDisplay:10.37,2013-02-04 09:58:00,
2013-02-04 05:03:00,30.1,20.5,30.06,SW,223,2.3,2.3,67,0.00,CLR,,0.00,WeatherDisplay:10.37,2013-02-04 10:03:00,
2013-02-04 05:08:00,30.1,20.5,30.06,SW,223,2.3,2.3,67,0.00,CLR,,0.00,WeatherDisplay:10.37,2013-02-04 10:08:00,
2013-02-04 05:13:00,30.1,20.5,30.06,SW,223,2.3,2.3,67,0.00,CLR,,0.00,WeatherDisplay:10.37,2013-02-04 10:13:00,
2013-02-04 05:18:00,30.1,20.5,30.06,SW,223,2.3,2.3,67,0.00,CLR,,0.00,WeatherDisplay:10.37,2013-02-04 10:18:00,
2013-02-04 05:23:00,30.5,21.5,30.06,WSW,252,3.5,3.5,69,0.00,CLR,,0.00,WeatherDisplay:10.37,2013-02-04 10:23:00,
2013-02-04 05:28:00,30.1,20.5,30.06,SW,223,2.3,2.3,67,0.00,CLR,,0.00,WeatherDisplay:10.37,2013-02-04 10:28:00,
2013-02-04 05:33:00,30.3,21.3,30.07,WSW,254,3.5,3.5,69,0.00,CLR,,0.00,WeatherDisplay:10.37,2013-02-04 10:33:00,
2013-02-04 05:38:00,30.2,20.9,30.06,WSW,254,0.0,0.0,68,0.00,CLR,,0.00,WeatherDisplay:10.37,2013-02-04 10:38:00,
2013-02-04 05:43:00,30.1,20.5,30.06,SW,223,2.3,2.3,67,0.00,CLR,,0.00,WeatherDisplay:10.37,2013-02-04 10:43:00,
2013-02-04 05:48:00,30.3,21.0,30.07,WSW,253,2.3,2.3,68,0.00,CLR,,0.00,WeatherDisplay:10.37,2013-02-04 10:48:00,
2013-02-04 05:53:00,30.4,21.1,30.07,WSW,254,3.5,3.5,68,0.00,CLR,,0.00,WeatherDisplay:10.37,2013-02-04 10:53:00,
2013-02-04 05:58:00,30.4,21.1,30.07,WSW,253,0.0,0.0,68,0.00,CLR,,0.00,WeatherDisplay:10.37,2013-02-04 10:58:00,
2013-02-04 06:03:00,30.3,21.0,30.07,WSW,254,3.5,3.5,68,0.00,CLR,,0.00,WeatherDisplay:10.37,2013-02-04 11:03:00,
2013-02-04 06:08:00,30.5,21.2,30.07,WSW,254,0.0,0.0,68,0.00,CLR,,0.00,WeatherDisplay:10.37,2013-02-04 11:08:00,
2013-02-04 06:13:00,30.3,21.0,30.07,WSW,254,3.5,3.5,68,0.00,CLR,,0.00,WeatherDisplay:10.37,2013-02-04 11:13:00,
2013-02-04 06:18:00,30.4,21.1,30.08,WSW,241,0.0,0.0,68,0.00,CLR,,0.00,WeatherDisplay:10.37,2013-02-04 11:18:00,
2013-02-04 06:23:00,30.4,20.7,30.08,WSW,241,0.0,0.0,67,0.00,CLR,,0.00,WeatherDisplay:10.37,2013-02-04 11:23:00,
2013-02-04 06:28:00,30.3,21.0,30.07,WSW,254,3.5,3.5,68,0.00,CLR,,0.00,WeatherDisplay:10.37,2013-02-04 11:28:00,
2013-02-04 06:33:00,30.4,21.1,30.08,WSW,241,0.0,0.0,68,0.00,CLR,,0.00,WeatherDisplay:10.37,2013-02-04 11:33:00,
2013-02-04 06:38:00,30.3,21.3,30.08,WSW,241,0.0,0.0,69,0.00,CLR,,0.00,WeatherDisplay:10.37,2013-02-04 11:38:00,
2013-02-04 06:43:00,30.2,21.2,30.09,WSW,241,0.0,0.0,69,0.00,CLR,,0.00,WeatherDisplay:10.37,2013-02-04 11:43:00,
2013-02-04 06:48:00,30.2,21.2,30.09,WSW,241,0.0,0.0,69,0.00,CLR,,0.00,WeatherDisplay:10.37,2013-02-04 11:48:00,
2013-02-04 06:53:00,30.3,21.0,30.07,WSW,254,3.5,3.5,68,0.00,CLR,,0.00,WeatherDisplay:10.37,2013-02-04 11:53:00,
2013-02-04 06:58:00,30.0,21.1,30.09,WSW,241,0.0,0.0,69,0.00,CLR,,0.00,WeatherDisplay:10.37,2013-02-04 11:58:00,
2013-02-04 07:03:00,30.3,21.0,30.07,WSW,254,3.5,3.5,68,0.00,CLR,,0.00,WeatherDisplay:10.37,2013-02-04 12:03:00,
2013-02-04 07:08:00,30.3,21.0,30.07,WSW,254,3.5,3.5,68,0.00,CLR,,0.00,WeatherDisplay:10.37,2013-02-04 12:08:00,
2013-02-04 07:13:00,29.7,21.8,30.09,WSW,241,0.0,0.0,72,0.00,CLR,,0.00,WeatherDisplay:10.37,2013-02-04 12:13:00,
2013-02-04 07:18:00,30.3,21.0,30.07,WSW,254,3.5,3.5,68,0.00,CLR,,0.00,WeatherDisplay:10.37,2013-02-04 12:18:00,
2013-02-04 07:23:00,29.4,21.5,30.09,WSW,241,0.0,0.0,72,0.00,CLR,,0.00,WeatherDisplay:10.37,2013-02-04 12:23:00,
2013-02-04 07:28:00,29.4,21.5,30.10,NNE,31,0.0,0.0,72,0.00,CLR,,0.00,WeatherDisplay:10.37,2013-02-04 12:28:00,
2013-02-04 07:33:00,29.4,21.2,30.10,NNE,30,0.0,0.0,71,0.00,CLR,,0.00,WeatherDisplay:10.37,2013-02-04 12:33:00,
2013-02-04 07:38:00,30.3,21.0,30.07,WSW,254,3.5,3.5,68,0.00,CLR,,0.00,WeatherDisplay:10.37,2013-02-04 12:38:00,
2013-02-04 07:43:00,29.6,21.3,30.10,NNE,31,0.0,0.0,71,0.00,CLR,,0.00,WeatherDisplay:10.37,2013-02-04 12:43:00,
2013-02-04 07:48:00,29.7,21.4,30.10,NNE,31,0.0,0.0,71,0.00,CLR,,0.00,WeatherDisplay:10.37,2013-02-04 12:48:00,
2013-02-04 07:53:00,29.8,21.5,30.11,NNE,30,0.0,0.0,71,0.00,CLR,,0.00,WeatherDisplay:10.37,2013-02-04 12:53:00,
2013-02-04 07:58:00,29.6,21.3,30.10,NNE,31,0.0,0.0,71,0.00,CLR,,0.00,WeatherDisplay:10.37,2013-02-04 12:58:00,
2013-02-04 08:03:00,29.6,21.3,30.10,NNE,31,0.0,0.0,71,0.00,CLR,,0.00,WeatherDisplay:10.37,2013-02-04 13:03:00,
2013-02-04 08:08:00,30.1,21.8,30.11,NNE,31,0.0,0.0,71,0.00,CLR,,0.00,WeatherDisplay:10.37,2013-02-04 13:08:00,
2013-02-04 08:13:00,30.3,22.0,30.11,NNE,30,0.0,0.0,71,0.00,CLR,,0.00,WeatherDisplay:10.37,2013-02-04 13:13:00,
2013-02-04 08:18:00,30.5,22.5,30.12,NNE,30,0.0,0.0,72,0.00,CLR,,0.00,WeatherDisplay:10.37,2013-02-04 13:18:00,
2013-02-04 08:23:00,29.6,21.3,30.10,NNE,31,0.0,0.0,71,0.00,CLR,,0.00,WeatherDisplay:10.37,2013-02-04 13:23:00,
2013-02-04 08:28:00,29.6,21.3,30.10,NNE,31,0.0,0.0,71,0.00,CLR,,0.00,WeatherDisplay:10.37,2013-02-04 13:28:00,
2013-02-04 08:33:00,31.0,23.4,30.14,NNE,30,0.0,0.0,73,0.00,CLR,,0.00,WeatherDisplay:10.37,2013-02-04 13:33:00,
2013-02-04 08:38:00,31.2,23.9,30.14,WSW,247,2.3,2.3,74,0.00,CLR,,0.00,WeatherDisplay:10.37,2013-02-04 13:38:00,
2013-02-04 08:43:00,29.6,21.3,30.10,NNE,31,0.0,0.0,71,0.00,CLR,,0.00,WeatherDisplay:10.37,2013-02-04 13:43:00,
2013-02-04 08:48:00,31.7,23.4,30.15,SW,232,0.0,0.0,71,0.00,CLR,,0.00,WeatherDisplay:10.37,2013-02-04 13:48:00,
2013-02-04 08:53:00,32.0,23.3,30.14,West,272,0.0,0.0,70,0.00,CLR,,0.00,WeatherDisplay:10.37,2013-02-04 13:53:00,
2013-02-04 08:58:00,32.5,23.8,30.15,ESE,122,0.0,0.0,70,0.00,CLR,,0.00,WeatherDisplay:10.37,2013-02-04 13:58:00,
2013-02-04 09:03:00,32.5,23.8,30.15,ESE,122,0.0,0.0,70,0.00,CLR,,0.00,WeatherDisplay:10.37,2013-02-04 14:03:00,
2013-02-04 09:08:00,33.6,23.8,30.14,ENE,64,3.5,3.5,67,0.00,CLR,,0.00,WeatherDisplay:10.37,2013-02-04 14:08:00,
2013-02-04 09:13:00,34.3,24.1,30.14,NNE,30,4.6,4.6,66,0.00,CLR,,0.00,WeatherDisplay:10.37,2013-02-04 14:13:00,
2013-02-04 09:18:00,34.7,24.1,30.14,NNE,31,3.5,3.5,65,0.00,CLR,,0.00,WeatherDisplay:10.37,2013-02-04 14:18:00,
2013-02-04 09:23:00,35.2,24.2,30.14,NNE,31,2.0,2.0,64,0.00,CLR,,0.00,WeatherDisplay:10.37,2013-02-04 14:23:00,
2013-02-04 09:28:00,33.2,23.8,30.14,East,92,0.0,0.0,68,0.00,CLR,,0.00,WeatherDisplay:10.37,2013-02-04 14:28:00,
2013-02-04 09:33:00,35.7,23.9,30.14,NNE,31,0.0,0.0,62,0.00,CLR,,0.00,WeatherDisplay:10.37,2013-02-04 14:33:00,
2013-02-04 09:38:00,36.2,24.0,30.14,NNE,29,3.5,3.5,61,0.00,CLR,,0.00,WeatherDisplay:10.37,2013-02-04 14:38:00,
2013-02-04 09:43:00,36.1,24.3,30.14,NNE,29,2.3,2.3,62,0.00,CLR,,0.00,WeatherDisplay:10.37,2013-02-04 14:43:00,
2013-02-04 09:48:00,36.1,24.3,30.14,NNE,29,2.3,2.3,62,0.00,CLR,,0.00,WeatherDisplay:10.37,2013-02-04 14:48:00,
2013-02-04 09:53:00,36.1,24.3,30.14,NNE,29,2.3,2.3,62,0.00,CLR,,0.00,WeatherDisplay:10.37,2013-02-04 14:53:00,
2013-02-04 09:58:00,36.1,24.3,30.14,NNE,29,2.3,2.3,62,0.00,CLR,,0.00,WeatherDisplay:10.37,2013-02-04 14:58:00,
2013-02-04 10:03:00,37.1,24.9,30.15,WNW,290,3.5,3.5,61,0.00,CLR,,0.00,WeatherDisplay:10.37,2013-02-04 15:03:00,
2013-02-04 10:08:00,37.3,24.7,30.15,WNW,290,0.0,0.0,60,0.00,CLR,,0.00,WeatherDisplay:10.37,2013-02-04 15:08:00,
2013-02-04 10:13:00,37.5,24.9,30.15,WNW,290,0.0,0.0,60,0.00,CLR,,0.00,WeatherDisplay:10.37,2013-02-04 15:13:00,
2013-02-04 10:18:00,37.9,24.4,30.15,WNW,290,0.0,0.0,58,0.00,CLR,,0.00,WeatherDisplay:10.37,2013-02-04 15:18:00,
2013-02-04 10:23:00,38.4,24.9,30.15,WNW,290,0.0,0.0,58,0.00,CLR,,0.00,WeatherDisplay:10.37,2013-02-04 15:23:00,
2013-02-04 10:28:00,38.4,25.3,30.15,WNW,290,0.0,0.0,59,0.00,CLR,,0.00,WeatherDisplay:10.37,2013-02-04 15:28:00,
2013-02-04 10:33:00,38.4,25.3,30.15,WNW,290,0.0,0.0,59,0.00,CLR,,0.00,WeatherDisplay:10.37,2013-02-04 15:33:00,
2013-02-04 10:38:00,38.4,25.3,30.15,WNW,290,0.0,0.0,59,0.00,CLR,,0.00,WeatherDisplay:10.37,2013-02-04 15:38:00,
2013-02-04 10:43:00,40.2,25.3,30.15,West,280,0.0,0.0,55,0.00,CLR,,0.00,WeatherDisplay:10.37,2013-02-04 15:43:00,
2013-02-04 10:48:00,40.5,26.0,30.16,West,280,0.0,0.0,56,0.00,CLR,,0.00,WeatherDisplay:10.37,2013-02-04 15:48:00,
2013-02-04 10:53:00,38.4,25.3,30.15,WNW,290,0.0,0.0,59,0.00,CLR,,0.00,WeatherDisplay:10.37,2013-02-04 15:53:00,
2013-02-04 10:58:00,40.5,25.1,30.16,WSW,256,3.5,3.5,54,0.00,CLR,,0.00,WeatherDisplay:10.37,2013-02-04 15:58:00,
2013-02-04 11:03:00,40.8,25.4,30.16,SW,218,3.0,3.0,54,0.00,CLR,,0.00,WeatherDisplay:10.37,2013-02-04 16:03:00,
2013-02-04 11:08:00,41.3,25.4,30.15,SSW,202,3.5,3.5,53,0.00,CLR,,0.00,WeatherDisplay:10.37,2013-02-04 16:08:00,
2013-02-04 11:13:00,41.7,25.8,30.15,SSW,202,1.2,0.0,53,0.00,CLR,,0.00,WeatherDisplay:10.37,2013-02-04 16:13:00,
2013-02-04 11:18:00,42.0,25.2,30.14,SSW,198,0.0,0.0,51,0.00,CLR,,0.00,WeatherDisplay:10.37,2013-02-04 16:18:00,
2013-02-04 11:23:00,41.7,25.8,30.15,SSW,202,0.0,0.0,53,0.00,CLR,,0.00,WeatherDisplay:10.37,2013-02-04 16:23:00,
2013-02-04 11:28:00,41.7,25.8,30.15,SSW,202,0.0,0.0,53,0.00,CLR,,0.00,WeatherDisplay:10.37,2013-02-04 16:28:00,
2013-02-04 11:33:00,42.4,26.0,30.13,SSW,212,5.0,5.0,52,0.00,CLR,,0.00,WeatherDisplay:10.37,2013-02-04 16:33:00,
2013-02-04 11:38:00,42.6,26.2,30.13,SW,215,3.5,3.5,52,0.00,CLR,,0.00,WeatherDisplay:10.37,2013-02-04 16:38:00,
2013-02-04 11:43:00,42.6,26.2,30.13,SW,215,3.5,3.5,52,0.00,CLR,,0.00,WeatherDisplay:10.37,2013-02-04 16:43:00,
2013-02-04 11:48:00,43.0,27.5,30.13,South,190,0.0,0.0,54,0.00,CLR,,0.00,WeatherDisplay:10.37,2013-02-04 16:48:00,
2013-02-04 11:53:00,43.1,26.7,30.13,SE,131,3.5,3.5,52,0.00,CLR,,0.00,WeatherDisplay:10.37,2013-02-04 16:53:00,
2013-02-04 11:58:00,43.3,26.4,30.13,West,263,5.0,5.0,51,0.00,CLR,,0.00,WeatherDisplay:10.37,2013-02-04 16:58:00,
2013-02-04 12:03:00,43.3,26.4,30.13,South,188,3.5,3.5,51,0.00,CLR,,0.00,WeatherDisplay:10.37,2013-02-04 17:03:00,
2013-02-04 12:08:00,43.4,26.5,30.13,SW,223,3.5,3.5,51,0.00,CLR,,0.00,WeatherDisplay:10.37,2013-02-04 17:08:00,
2013-02-04 12:13:00,43.2,26.7,30.13,SE,131,0.0,0.0,52,0.00,CLR,,0.00,WeatherDisplay:10.37,2013-02-04 17:13:00,
2013-02-04 12:18:00,43.2,26.7,30.13,SE,131,0.0,0.0,52,0.00,CLR,,0.00,WeatherDisplay:10.37,2013-02-04 17:18:00,
2013-02-04 12:23:00,44.1,27.1,30.12,SE,129,9.2,9.2,51,0.00,CLR,,0.00,WeatherDisplay:10.37,2013-02-04 17:23:00,
2013-02-04 12:28:00,43.2,26.7,30.13,SE,131,0.0,0.0,52,0.00,CLR,,0.00,WeatherDisplay:10.37,2013-02-04 17:28:00,
2013-02-04 12:33:00,44.9,27.4,30.12,SW,229,6.0,6.0,50,0.00,CLR,,0.00,WeatherDisplay:10.37,2013-02-04 17:33:00,
2013-02-04 12:38:00,45.2,27.2,30.11,SSE,163,4.6,4.6,49,0.00,CLR,,0.00,WeatherDisplay:10.37,2013-02-04 17:38:00,
2013-02-04 12:43:00,45.3,27.2,30.10,WSW,246,6.9,6.9,49,0.00,CLR,,0.00,WeatherDisplay:10.37,2013-02-04 17:43:00,
2013-02-04 12:48:00,43.2,26.7,30.13,SE,131,0.0,0.0,52,0.00,CLR,,0.00,WeatherDisplay:10.37,2013-02-04 17:48:00,
2013-02-04 12:53:00,45.7,26.6,30.10,WSW,246,6.9,6.9,47,0.00,CLR,,0.00,WeatherDisplay:10.37,2013-02-04 17:53:00,
2013-02-04 12:58:00,46.0,26.9,30.10,SSE,163,4.6,4.6,47,0.00,CLR,,0.00,WeatherDisplay:10.37,2013-02-04 17:58:00,
2013-02-04 13:03:00,46.3,27.7,30.09,WSW,246,10.4,10.4,48,0.00,CLR,,0.00,WeatherDisplay:10.37,2013-02-04 18:03:00,
2013-02-04 13:08:00,46.4,27.8,30.09,West,259,3.5,3.5,48,0.00,CLR,,0.00,WeatherDisplay:10.37,2013-02-04 18:08:00,
2013-02-04 13:13:00,46.8,27.6,30.08,WSW,241,5.0,5.0,47,0.00,CLR,,0.00,WeatherDisplay:10.37,2013-02-04 18:13:00,
2013-02-04 13:18:00,47.0,27.8,30.08,WSW,242,5.8,5.8,47,0.00,CLR,,0.00,WeatherDisplay:10.37,2013-02-04 18:18:00,
2013-02-04 13:23:00,46.3,26.6,30.09,West,259,3.5,3.9,46,0.00,CLR,,0.00,WeatherDisplay:10.37,2013-02-04 18:23:00,
2013-02-04 13:28:00,46.3,26.6,30.09,West,259,3.5,3.9,46,0.00,CLR,,0.00,WeatherDisplay:10.37,2013-02-04 18:28:00,
2013-02-04 13:33:00,48.1,26.6,30.07,SW,218,6.9,6.9,43,0.00,CLR,,0.00,WeatherDisplay:10.37,2013-02-04 18:33:00,
2013-02-04 13:38:00,48.3,27.4,30.07,SSE,164,3.5,3.5,44,0.00,CLR,,0.00,WeatherDisplay:10.37,2013-02-04 18:38:00,
2013-02-04 13:43:00,48.2,28.4,30.07,WSW,250,3.5,4.7,46,0.00,CLR,,0.00,WeatherDisplay:10.37,2013-02-04 18:43:00,
2013-02-04 13:48:00,48.8,27.8,30.07,WSW,250,10.4,10.4,44,0.00,CLR,,0.00,WeatherDisplay:10.37,2013-02-04 18:48:00,
2013-02-04 13:53:00,48.2,28.4,30.07,WSW,250,3.5,4.7,46,0.00,CLR,,0.00,WeatherDisplay:10.37,2013-02-04 18:53:00,
2013-02-04 13:58:00,49.5,27.3,30.06,West,261,10.0,10.0,42,0.00,CLR,,0.00,WeatherDisplay:10.37,2013-02-04 18:58:00,
2013-02-04 14:03:00,49.5,26.7,30.06,WSW,244,11.5,11.5,41,0.00,CLR,,0.00,WeatherDisplay:10.37,2013-02-04 19:03:00,
2013-02-04 14:08:00,49.5,27.3,30.06,West,261,10.4,10.4,42,0.00,CLR,,0.00,WeatherDisplay:10.37,2013-02-04 19:08:00,
2013-02-04 14:13:00,49.5,27.3,30.06,West,261,10.4,10.4,42,0.00,CLR,,0.00,WeatherDisplay:10.37,2013-02-04 19:13:00,
2013-02-04 14:18:00,49.5,27.3,30.06,WSW,238,4.6,5.1,42,0.00,CLR,,0.00,WeatherDisplay:10.37,2013-02-04 19:18:00,
2013-02-04 14:23:00,49.7,27.5,30.06,SSW,207,5.8,5.8,42,0.00,CLR,,0.00,WeatherDisplay:10.37,2013-02-04 19:23:00,
2013-02-04 14:28:00,50.0,27.8,30.06,WSW,238,10.4,10.4,42,0.00,CLR,,0.00,WeatherDisplay:10.37,2013-02-04 19:28:00,
2013-02-04 14:33:00,50.1,28.4,30.05,WSW,240,4.0,4.0,43,0.00,CLR,,0.00,WeatherDisplay:10.37,2013-02-04 19:33:00,
2013-02-04 14:38:00,50.3,29.2,30.05,South,170,4.6,4.6,44,0.00,CLR,,0.00,WeatherDisplay:10.37,2013-02-04 19:38:00,
2013-02-04 14:43:00,50.0,27.8,30.06,SW,236,9.2,9.2,42,0.00,CLR,,0.00,WeatherDisplay:10.37,2013-02-04 19:43:00,
2013-02-04 14:48:00,50.6,28.3,30.05,SW,221,3.5,3.5,42,0.00,CLR,,0.00,WeatherDisplay:10.37,2013-02-04 19:48:00,
2013-02-04 14:53:00,50.5,27.7,30.05,SSW,192,6.0,6.0,41,0.00,CLR,,0.00,WeatherDisplay:10.37,2013-02-04 19:53:00,
2013-02-04 14:58:00,50.0,27.8,30.06,SW,236,9.2,9.2,42,0.00,CLR,,0.00,WeatherDisplay:10.37,2013-02-04 19:58:00,
2013-02-04 15:03:00,50.0,27.8,30.06,SW,236,9.2,9.2,42,0.00,CLR,,0.00,WeatherDisplay:10.37,2013-02-04 20:03:00,
2013-02-04 15:08:00,50.0,27.8,30.06,SW,236,9.2,9.2,42,0.00,CLR,,0.00,WeatherDisplay:10.37,2013-02-04 20:08:00,
2013-02-04 15:13:00,50.0,27.8,30.06,SW,236,9.2,9.2,42,0.00,CLR,,0.00,WeatherDisplay:10.37,2013-02-04 20:13:00,
2013-02-04 15:18:00,50.0,27.8,30.06,SW,236,9.2,9.2,42,0.00,CLR,,0.00,WeatherDisplay:10.37,2013-02-04 20:18:00,
2013-02-04 15:23:00,50.7,28.4,30.04,WSW,256,4.6,4.6,42,0.00,CLR,,0.00,WeatherDisplay:10.37,2013-02-04 20:23:00,
2013-02-04 15:28:00,50.9,28.0,30.04,SSW,201,9.2,9.2,41,0.00,CLR,,0.00,WeatherDisplay:10.37,2013-02-04 20:28:00,
2013-02-04 15:33:00,50.8,27.3,30.04,WSW,240,8.1,8.1,40,0.00,CLR,,0.00,WeatherDisplay:10.37,2013-02-04 20:33:00,
2013-02-04 15:38:00,50.9,28.0,30.04,WSW,246,3.5,3.5,41,0.00,CLR,,0.00,WeatherDisplay:10.37,2013-02-04 20:38:00,
2013-02-04 15:43:00,50.9,27.4,30.04,WSW,246,11.0,11.0,40,0.00,CLR,,0.00,WeatherDisplay:10.37,2013-02-04 20:43:00,
2013-02-04 15:48:00,50.7,27.2,30.04,SW,236,7.0,7.0,40,0.00,CLR,,0.00,WeatherDisplay:10.37,2013-02-04 20:48:00,
2013-02-04 15:53:00,50.6,27.7,30.04,WSW,248,3.5,4.0,41,0.00,CLR,,0.00,WeatherDisplay:10.37,2013-02-04 20:53:00,
2013-02-04 15:58:00,50.6,27.1,30.04,SW,235,3.5,4.5,40,0.00,CLR,,0.00,WeatherDisplay:10.37,2013-02-04 20:58:00,
2013-02-04 16:03:00,50.6,27.1,30.04,SW,235,3.5,4.5,40,0.00,CLR,,0.00,WeatherDisplay:10.37,2013-02-04 21:03:00,
2013-02-04 16:08:00,50.4,27.0,30.03,WSW,239,9.0,9.0,40,0.00,CLR,,0.00,WeatherDisplay:10.37,2013-02-04 21:08:00,
2013-02-04 16:13:00,50.3,26.9,30.03,SW,232,10.4,10.4,40,0.00,CLR,,0.00,WeatherDisplay:10.37,2013-02-04 21:13:00,
2013-02-04 16:18:00,50.6,27.1,30.04,SW,235,3.5,4.5,40,0.00,CLR,,0.00,WeatherDisplay:10.37,2013-02-04 21:18:00,
2013-02-04 16:23:00,50.6,27.1,30.04,SW,235,3.5,4.5,40,0.00,CLR,,0.00,WeatherDisplay:10.37,2013-02-04 21:23:00,
2013-02-04 16:28:00,50.6,27.1,30.04,SW,235,3.5,4.5,40,0.00,CLR,,0.00,WeatherDisplay:10.37,2013-02-04 21:28:00,
2013-02-04 16:33:00,50.6,27.1,30.04,SW,235,3.5,4.5,40,0.00,CLR,,0.00,WeatherDisplay:10.37,2013-02-04 21:33:00,
2013-02-04 16:38:00,50.6,27.1,30.04,SW,235,3.5,4.5,40,0.00,CLR,,0.00,WeatherDisplay:10.37,2013-02-04 21:38:00,
2013-02-04 16:43:00,49.9,27.7,30.03,SW,236,5.8,5.8,42,0.00,CLR,,0.00,WeatherDisplay:10.37,2013-02-04 21:43:00,
2013-02-04 16:48:00,49.8,27.6,30.03,SW,217,3.5,3.5,42,0.00,CLR,,0.00,WeatherDisplay:10.37,2013-02-04 21:48:00,
2013-02-04 16:53:00,49.7,27.5,30.03,SW,223,5.8,5.8,42,0.00,CLR,,0.00,WeatherDisplay:10.37,2013-02-04 21:53:00,
2013-02-04 16:58:00,49.6,28.0,30.03,SW,223,3.5,3.5,43,0.00,CLR,,0.00,WeatherDisplay:10.37,2013-02-04 21:58:00,
2013-02-04 17:03:00,49.6,28.0,30.03,SW,223,2.3,2.4,43,0.00,CLR,,0.00,WeatherDisplay:10.37,2013-02-04 22:03:00,
2013-02-04 17:08:00,49.6,28.0,30.03,SW,223,2.3,2.4,43,0.00,CLR,,0.00,WeatherDisplay:10.37,2013-02-04 22:08:00,
2013-02-04 17:13:00,49.2,27.6,30.03,WSW,237,4.6,4.6,43,0.00,CLR,,0.00,WeatherDisplay:10.37,2013-02-04 22:13:00,
2013-02-04 17:18:00,49.2,27.6,30.03,West,259,3.5,5.0,43,0.00,CLR,,0.00,WeatherDisplay:10.37,2013-02-04 22:18:00,
2013-02-04 17:23:00,48.8,27.3,30.03,WSW,238,6.9,6.9,43,0.00,CLR,,0.00,WeatherDisplay:10.37,2013-02-04 22:23:00,
2013-02-04 17:28:00,48.8,27.3,30.03,WSW,238,3.5,4.6,43,0.00,CLR,,0.00,WeatherDisplay:10.37,2013-02-04 22:28:00,
2013-02-04 17:33:00,48.4,27.5,30.03,SW,236,5.8,5.8,44,0.00,CLR,,0.00,WeatherDisplay:10.37,2013-02-04 22:33:00,
2013-02-04 17:38:00,48.8,27.3,30.03,WSW,238,3.5,4.6,43,0.00,CLR,,0.00,WeatherDisplay:10.37,2013-02-04 22:38:00,
2013-02-04 17:43:00,48.8,27.3,30.03,WSW,238,3.5,4.6,43,0.00,CLR,,0.00,WeatherDisplay:10.37,2013-02-04 22:43:00,
2013-02-04 17:48:00,47.7,26.8,30.02,SW,221,8.1,8.1,44,0.00,CLR,,0.00,WeatherDisplay:10.37,2013-02-04 22:48:00,
2013-02-04 17:53:00,47.5,27.2,30.03,WSW,250,10.4,10.4,45,0.00,CLR,,0.00,WeatherDisplay:10.37,2013-02-04 22:53:00,
2013-02-04 17:58:00,47.3,27.0,30.03,SW,219,9.2,9.2,45,0.00,CLR,,0.00,WeatherDisplay:10.37,2013-02-04 22:58:00,
2013-02-04 18:03:00,47.9,27.6,30.03,WSW,245,2.3,2.3,45,0.00,CLR,,0.00,WeatherDisplay:10.37,2013-02-04 23:03:00,
2013-02-04 18:08:00,47.9,27.6,30.03,WSW,245,2.3,2.3,45,0.00,CLR,,0.00,WeatherDisplay:10.37,2013-02-04 23:08:00,
2013-02-04 18:13:00,46.7,27.5,30.03,SSW,205,4.6,4.6,47,0.00,CLR,,0.00,WeatherDisplay:10.37,2013-02-04 23:13:00,
2013-02-04 18:18:00,46.5,27.3,30.03,SSW,196,5.8,5.8,47,0.00,CLR,,0.00,WeatherDisplay:10.37,2013-02-04 23:18:00,
2013-02-04 18:23:00,46.4,27.8,30.03,SW,235,2.3,2.3,48,0.00,CLR,,0.00,WeatherDisplay:10.37,2013-02-04 23:23:00,
2013-02-04 18:28:00,46.2,27.6,30.03,WSW,255,4.6,4.6,48,0.00,CLR,,0.00,WeatherDisplay:10.37,2013-02-04 23:28:00,
2013-02-04 18:33:00,46.4,27.8,30.03,SW,235,1.2,1.9,48,0.00,CLR,,0.00,WeatherDisplay:10.37,2013-02-04 23:33:00,
2013-02-04 18:38:00,45.8,28.2,30.03,SSW,211,2.3,2.3,50,0.00,CLR,,0.00,WeatherDisplay:10.37,2013-02-04 23:38:00,
2013-02-04 18:43:00,45.6,28.0,30.03,SW,221,4.6,4.6,50,0.00,CLR,,0.00,WeatherDisplay:10.37,2013-02-04 23:43:00,
2013-02-04 18:48:00,45.4,28.3,30.03,South,186,3.5,3.5,51,0.00,CLR,,0.00,WeatherDisplay:10.37,2013-02-04 23:48:00,
2013-02-04 18:53:00,46.4,27.8,30.03,SW,235,1.2,1.9,48,0.00,CLR,,0.00,WeatherDisplay:10.37,2013-02-04 23:53:00,
2013-02-04 18:58:00,46.4,27.8,30.03,SW,235,1.2,1.9,48,0.00,CLR,,0.00,WeatherDisplay:10.37,2013-02-04 23:58:00,
2013-02-04 19:03:00,45.0,27.5,30.03,WSW,244,4.6,4.6,50,0.00,CLR,,0.00,WeatherDisplay:10.37,2013-02-05 00:03:00,
2013-02-04 19:08:00,45.0,27.5,30.03,South,176,11.5,11.5,50,0.00,CLR,,0.00,WeatherDisplay:10.37,2013-02-05 00:08:00,
2013-02-04 19:13:00,44.8,27.3,30.03,SSW,205,3.5,3.5,50,0.00,CLR,,0.00,WeatherDisplay:10.37,2013-02-05 00:13:00,
2013-02-04 19:18:00,44.7,27.2,30.03,SSW,213,3.5,3.5,50,0.00,CLR,,0.00,WeatherDisplay:10.37,2013-02-05 00:18:00,
2013-02-04 19:23:00,44.4,26.9,30.03,SW,234,4.6,4.6,50,0.00,CLR,,0.00,WeatherDisplay:10.37,2013-02-05 00:23:00,
2013-02-04 19:28:00,44.4,26.9,30.03,SW,234,2.3,2.5,50,0.00,CLR,,0.00,WeatherDisplay:10.37,2013-02-05 00:28:00,
2013-02-04 19:33:00,43.9,26.9,30.03,SW,223,3.5,3.5,51,0.00,CLR,,0.00,WeatherDisplay:10.37,2013-02-05 00:33:00,
2013-02-04 19:38:00,43.7,26.7,30.03,SW,221,3.5,3.5,51,0.00,CLR,,0.00,WeatherDisplay:10.37,2013-02-05 00:38:00,
2013-02-04 19:43:00,43.4,26.9,30.03,SW,220,1.2,1.2,52,0.00,CLR,,0.00,WeatherDisplay:10.37,2013-02-05 00:43:00,
2013-02-04 19:48:00,43.4,26.9,30.03,SW,230,2.3,3.1,52,0.00,CLR,,0.00,WeatherDisplay:10.37,2013-02-05 00:48:00,
2013-02-04 19:53:00,43.4,26.9,30.03,SW,230,2.3,3.1,52,0.00,CLR,,0.00,WeatherDisplay:10.37,2013-02-05 00:53:00,
2013-02-04 19:58:00,42.7,26.7,30.03,SW,232,4.6,4.6,53,0.00,CLR,,0.00,WeatherDisplay:10.37,2013-02-05 00:58:00,
2013-02-04 20:03:00,42.4,26.9,30.03,SW,220,0.0,0.0,54,0.00,CLR,,0.00,WeatherDisplay:10.37,2013-02-05 01:03:00,
2013-02-04 20:08:00,42.3,26.8,30.03,SW,219,0.0,0.0,54,0.00,CLR,,0.00,WeatherDisplay:10.37,2013-02-05 01:08:00,
2013-02-04 20:13:00,42.1,26.6,30.03,SW,220,0.0,0.0,54,0.00,CLR,,0.00,WeatherDisplay:10.37,2013-02-05 01:13:00,
2013-02-04 20:18:00,41.9,26.4,30.03,SW,219,0.0,0.0,54,0.00,CLR,,0.00,WeatherDisplay:10.37,2013-02-05 01:18:00,
2013-02-04 20:23:00,41.7,26.7,30.03,SW,219,0.0,0.0,55,0.00,CLR,,0.00,WeatherDisplay:10.37,2013-02-05 01:23:00,
2013-02-04 20:28:00,41.3,26.3,30.03,SW,218,1.2,0.0,55,0.00,CLR,,0.00,WeatherDisplay:10.37,2013-02-05 01:28:00,
2013-02-04 20:33:00,43.4,26.9,30.03,SW,230,2.3,3.1,52,0.00,CLR,,0.00,WeatherDisplay:10.37,2013-02-05 01:33:00,
2013-02-04 20:38:00,43.4,26.9,30.03,SW,230,2.3,3.1,52,0.00,CLR,,0.00,WeatherDisplay:10.37,2013-02-05 01:38:00,
2013-02-04 20:43:00,43.4,26.9,30.03,SW,230,2.3,3.1,52,0.00,CLR,,0.00,WeatherDisplay:10.37,2013-02-05 01:43:00,
2013-02-04 20:48:00,40.3,26.7,30.03,SSW,213,1.2,1.2,58,0.00,CLR,,0.00,WeatherDisplay:10.37,2013-02-05 01:48:00,
2013-02-04 20:53:00,40.0,26.4,30.03,SSW,213,0.0,0.0,58,0.00,CLR,,0.00,WeatherDisplay:10.37,2013-02-05 01:53:00,
2013-02-04 20:58:00,39.8,26.2,30.03,SSW,213,0.0,0.0,58,0.00,CLR,,0.00,WeatherDisplay:10.37,2013-02-05 01:58:00,
2013-02-04 21:03:00,39.9,26.3,30.03,SSW,213,0.0,0.0,58,0.00,CLR,,0.00,WeatherDisplay:10.37,2013-02-05 02:03:00,
2013-02-04 21:08:00,39.3,26.2,30.03,SSW,213,1.2,1.2,59,0.00,CLR,,0.00,WeatherDisplay:10.37,2013-02-05 02:08:00,
2013-02-04 21:13:00,39.9,26.3,30.03,SSW,213,0.0,0.0,58,0.00,CLR,,0.00,WeatherDisplay:10.37,2013-02-05 02:13:00,
2013-02-04 21:18:00,38.9,26.2,30.03,SSW,213,0.0,0.0,60,0.00,CLR,,0.00,WeatherDisplay:10.37,2013-02-05 02:18:00,
2013-02-04 21:23:00,39.9,26.3,30.03,SSW,213,0.0,0.0,58,0.00,CLR,,0.00,WeatherDisplay:10.37,2013-02-05 02:23:00,
2013-02-04 21:28:00,38.7,26.0,30.04,SSW,213,3.5,0.0,60,0.00,CLR,,0.00,WeatherDisplay:10.37,2013-02-05 02:28:00,
2013-02-04 21:33:00,39.9,26.3,30.03,SSW,213,0.0,0.0,58,0.00,CLR,,0.00,WeatherDisplay:10.37,2013-02-05 02:33:00,
2013-02-04 21:38:00,38.5,26.2,30.04,SSW,213,0.0,0.0,61,0.00,CLR,,0.00,WeatherDisplay:10.37,2013-02-05 02:38:00,
2013-02-04 21:43:00,38.4,26.5,30.04,SW,216,0.0,0.1,62,0.00,CLR,,0.00,WeatherDisplay:10.37,2013-02-05 02:43:00,
2013-02-04 21:48:00,38.3,26.4,30.04,SW,215,1.2,1.2,62,0.00,CLR,,0.00,WeatherDisplay:10.37,2013-02-05 02:48:00,
2013-02-04 21:53:00,38.5,26.2,30.04,SSW,213,0.0,0.0,61,0.00,CLR,,0.00,WeatherDisplay:10.37,2013-02-05 02:53:00,
2013-02-04 21:58:00,38.4,26.9,30.03,SW,217,0.0,0.0,63,0.00,CLR,,0.00,WeatherDisplay:10.37,2013-02-05 02:58:00,
2013-02-04 22:03:00,38.4,26.9,30.04,SW,217,0.0,0.1,63,0.00,CLR,,0.00,WeatherDisplay:10.37,2013-02-05 03:03:00,
2013-02-04 22:08:00,38.6,27.1,30.04,SW,217,3.5,3.5,63,0.00,CLR,,0.00,WeatherDisplay:10.37,2013-02-05 03:08:00,
2013-02-04 22:13:00,38.8,27.3,30.04,SSW,207,3.5,3.5,63,0.00,CLR,,0.00,WeatherDisplay:10.37,2013-02-05 03:13:00,
2013-02-04 22:18:00,38.4,26.9,30.03,SW,217,1.2,1.4,63,0.00,CLR,,0.00,WeatherDisplay:10.37,2013-02-05 03:18:00,
2013-02-04 22:23:00,39.0,27.1,30.03,SW,224,3.5,3.5,62,0.00,CLR,,0.00,WeatherDisplay:10.37,2013-02-05 03:23:00,
2013-02-04 22:28:00,38.4,26.9,30.03,SW,217,1.2,1.4,63,0.00,CLR,,0.00,WeatherDisplay:10.37,2013-02-05 03:28:00,
2013-02-04 22:33:00,38.4,26.9,30.03,SW,217,1.2,1.4,63,0.00,CLR,,0.00,WeatherDisplay:10.37,2013-02-05 03:33:00,
2013-02-04 22:38:00,39.5,27.5,30.04,SW,232,5.0,5.0,62,0.00,CLR,,0.00,WeatherDisplay:10.37,2013-02-05 03:38:00,
2013-02-04 22:43:00,39.6,27.6,30.03,WSW,242,9.0,9.0,62,0.00,CLR,,0.00,WeatherDisplay:10.37,2013-02-05 03:43:00,
2013-02-04 22:48:00,39.3,27.7,30.03,SW,215,0.0,2.8,63,0.00,CLR,,0.00,WeatherDisplay:10.37,2013-02-05 03:48:00,
2013-02-04 22:53:00,40.0,28.0,30.03,SW,219,3.5,3.5,62,0.00,CLR,,0.00,WeatherDisplay:10.37,2013-02-05 03:53:00,
2013-02-04 22:58:00,40.2,28.2,30.03,SSW,205,5.8,5.9,62,0.00,CLR,,0.00,WeatherDisplay:10.37,2013-02-05 03:58:00,
2013-02-04 23:03:00,40.5,28.1,30.02,SW,230,13.8,13.8,61,0.00,CLR,,0.00,WeatherDisplay:10.37,2013-02-05 04:03:00,
2013-02-04 23:08:00,40.8,28.8,30.02,WSW,242,11.0,11.0,62,0.00,CLR,,0.00,WeatherDisplay:10.37,2013-02-05 04:08:00,
2013-02-04 23:13:00,41.0,29.0,30.02,WSW,242,5.8,5.8,62,0.00,CLR,,0.00,WeatherDisplay:10.37,2013-02-05 04:13:00,
2013-02-04 23:18:00,41.2,28.8,30.02,SW,227,4.6,4.6,61,0.00,CLR,,0.00,WeatherDisplay:10.37,2013-02-05 04:18:00,
2013-02-04 23:23:00,41.4,28.9,30.01,WSW,242,10.4,10.4,61,0.00,CLR,,0.00,WeatherDisplay:10.37,2013-02-05 04:23:00,
2013-02-04 23:28:00,41.4,28.9,30.01,SW,230,5.8,5.8,61,0.00,CLR,,0.00,WeatherDisplay:10.37,2013-02-05 04:28:00,
2013-02-04 23:33:00,41.7,29.2,30.01,WSW,252,11.5,11.5,61,0.00,CLR,,0.00,WeatherDisplay:10.37,2013-02-05 04:33:00,
2013-02-04 23:38:00,41.8,28.9,30.01,WSW,252,12.7,12.7,60,0.00,CLR,,0.00,WeatherDisplay:10.37,2013-02-05 04:38:00,
2013-02-04 23:43:00,41.7,29.2,30.01,SSW,205,9.2,9.2,61,0.00,CLR,,0.00,WeatherDisplay:10.37,2013-02-05 04:43:00,
2013-02-04 23:48:00,42.0,29.5,30.01,WSW,254,10.4,10.4,61,0.00,CLR,,0.00,WeatherDisplay:10.37,2013-02-05 04:48:00,
2013-02-04 23:53:00,42.0,29.5,30.00,WSW,244,5.8,5.8,61,0.00,CLR,,0.00,WeatherDisplay:10.37,2013-02-05 04:53:00,
2013-02-04 23:58:00,42.0,29.5,30.00,SW,225,10.4,10.4,61,0.00,CLR,,0.00,WeatherDisplay:10.37,2013-02-05 04:58:00,